[[{"header":{"parameterUnit":"m.s-1","parameterCategory":1,"la1":30.2991,"la2":30.254,"lo1":-89.0895,"lo2":-89.0444,"dy":0.0017,"dx":0.0017,"nx":28,"ny":28,"refTime":"2026-02-17T03:00:00:Z","depth":0,"parameterNumber":2,"parameterNumberName":"U-component_of_WINDS"},"data":[0,0,0,0,0,0,0,0,0,0,0,0,0,0,0,0,0,0,0,0,0,0,0,0,0,0,0,0,0,0,0,0,0,0,0,0,0,0,0,0,0,0,0,0,0,0,0,0,0,0,0,0,0,0,0,0,0,0,-2.6896,-2.6898,0,-2.7035,-2.7037,-2.7038,-2.7089,-2.7088,-2.7088,-2.7087,-2.7233,-2.7238,-2.7242,0,0,0,0,0,0,0,0,0,0,0,0,0,-2.6678,-2.6681,-2.6896,-2.6898,-2.69,-2.7035,-2.7037,-2.7039,-2.7089,-2.7088,-2.7088,-2.7087,-2.7232,-2.7237,-2.7242,0,0,0,0,0,0,0,0,0,0,0,0,0,-2.679,-2.6682,-2.6896,-2.6941,-2.6946,-2.7035,-2.7037,-2.7039,-2.7089,-2.7088,-2.7088,-2.7087,-2.723,-2.7236,-2.7243,-2.7298,0,0,-2.7263,-2.7266,0,0,0,0,0,0,0,0,-2.6784,-2.6798,-2.6932,-2.6938,-2.6944,-2.7044,-2.7013,-2.7126,-2.7089,-2.7035,-2.7087,-2.7086,-2.7171,-2.7182,-2.721,-2.7305,-2.7311,-2.7263,-2.7267,-2.727,-2.7272,0,0,0,0,0,0,0,-2.6776,-2.6792,-2.6951,-2.6934,-2.6941,-2.6955,-2.697,-2.7035,-2.7106,-2.704,-2.7044,-2.7059,-2.7174,-2.7204,-2.7214,-2.7313,-2.7263,-2.7269,-2.7273,-2.7276,-2.7459,-2.746,0,0,0,0,0,0,-2.676,-2.6786,-2.6947,-2.6955,-2.686,-2.696,-2.6977,-2.7013,-2.7105,-2.7118,-2.706,-2.7061,-2.7193,-2.7206,-2.7219,-2.7289,-2.727,-2.7276,-2.728,-2.7458,-2.746,-2.7461,0,0,0,0,0,0,-2.6755,-2.6774,-2.6941,-2.6872,-2.6894,-2.6964,-2.7004,-2.7016,-2.7045,-2.712,-2.7133,-2.7077,-2.7193,-2.721,-2.7278,-2.7295,-2.7279,-2.7285,-2.7457,-2.7459,-2.746,-2.7429,0,0,0,0,0,0,-2.6749,-2.6772,-2.6792,-2.6872,-2.6897,-2.6996,-2.7005,-2.7019,-2.7056,-2.7059,-2.7139,-2.7152,-2.7194,-2.7268,-2.7284,-2.7304,-2.729,-2.7456,-2.7458,-2.746,-2.7429,-2.7429,-2.743,0,0,0,0,0,-2.6741,-2.6779,-2.6793,-2.6812,-2.6925,-2.6997,-2.7012,-2.7058,-2.7057,-2.7079,-2.7127,-2.715,-2.729,-2.7274,-2.7293,-2.7315,-2.7455,-2.7457,-2.746,-2.7429,-2.7429,-2.743,0,0,0,0,0,0,-2.6702,-2.679,-2.6807,-2.6872,-2.6926,-2.7005,-2.7034,-2.7057,-2.7113,-2.7114,-2.717,-2.7188,-2.725,-2.729,-2.727,-2.7373,-2.7374,-2.738,-2.7344,-2.7346,-2.7346,-2.7335,-2.7296,0,0,0,0,0,-2.67,-2.675,-2.6826,-2.6876,-2.6902,-2.6963,-2.6996,-2.7027,-2.7086,-2.711,-2.7163,-2.722,-2.7277,-2.7314,-2.7371,-2.7435,-2.7454,-2.746,-2.746,-2.746,-2.7464,-2.7501,-2.7505,-2.7468,-2.7468,-2.7468,0,0,-2.6699,-2.6753,-2.6782,-2.6869,-2.6915,-2.6966,-2.6982,-2.7036,-2.7075,-2.7118,-2.7184,-2.7225,-2.7293,-2.7359,-2.7391,-2.7394,-2.7479,-2.7463,-2.7462,-2.7467,-2.7504,-2.7507,-2.751,-2.7469,-2.7469,-2.7469,0,0,-2.6721,-2.6768,-2.6814,-2.6859,-2.6928,-2.6968,-2.6979,-2.7055,-2.7083,-2.715,-2.7184,-2.7232,-2.7329,-2.7376,-2.7412,-2.7453,-2.7476,-2.747,-2.7472,-2.7507,-2.751,-2.7513,-2.7527,-2.7531,-2.7474,-2.7474,-2.7474,0,-2.6711,-2.6788,-2.6836,-2.6887,-2.6925,-2.6965,-2.7013,-2.7055,-2.7139,-2.7165,-2.7167,-2.7289,-2.7338,-2.7415,-2.7425,-2.7454,-2.7468,-2.7461,-2.7505,-2.7509,-2.7512,-2.7526,-2.7531,-2.7473,-2.7473,-2.7473,-2.7473,0,-2.6772,-2.6825,-2.6855,-2.6933,-2.6974,-2.7024,-2.708,-2.7116,-2.7143,-2.7184,-2.7252,-2.7311,-2.7381,-2.7402,-2.743,-2.7483,-2.7483,-2.7494,-2.7497,-2.7514,-2.7528,-2.7533,-2.7471,-2.7472,-2.7472,-2.7472,0,0,-2.6774,-2.6877,-2.6887,-2.6922,-2.7001,-2.7044,-2.7096,-2.7162,-2.7192,-2.7249,-2.7294,-2.7375,-2.7386,-2.7428,-2.7462,-2.7492,-2.752,-2.7501,-2.7503,-2.7501,-2.7582,-2.7572,-2.7578,-2.7536,-2.7537,-2.7538,-2.7576,0,-2.6806,-2.6898,-2.6942,-2.7016,-2.7066,-2.7105,-2.715,-2.7204,-2.7243,-2.7292,-2.7337,-2.7393,-2.7404,-2.7429,-2.7461,-2.751,-2.7537,-2.7508,-2.7579,-2.7581,-2.7559,-2.7585,-2.7575,-2.7608,-2.7582,-2.7583,-2.7584,0,-2.6856,-2.6911,-2.6988,-2.706,-2.7083,-2.7123,-2.7187,-2.7233,-2.7295,-2.7322,-2.7368,-2.74,-2.7457,-2.7456,-2.7536,-2.7515,-2.7547,-2.7575,-2.7578,-2.7586,-2.7583,-2.7593,-2.762,-2.7624,-2.7593,-2.7593,-2.7592,0,-2.6848,-2.6942,-2.7,-2.703,-2.7116,-2.7142,-2.718,-2.7241,-2.7278,-2.7335,-2.7359,-2.7423,-2.7457,-2.7506,-2.7555,-2.755,-2.763,-2.7633,-2.7654,-2.7653,-2.7669,-2.7667,-2.77,-2.769,-2.769,-2.769,-2.769,0,-2.6879,-2.6925,-2.6998,-2.7034,-2.7086,-2.7137,-2.7189,-2.7229,-2.7283,-2.7329,-2.7368,-2.7409,-2.7472,-2.7522,-2.7561,-2.7621,-2.7637,-2.766,-2.767,-2.7656,-2.7653,-2.7678,-2.7676,-2.7692,-2.7691,-2.7691,-2.7691,0,-2.6879,-2.693,-2.6996,-2.7071,-2.7091,-2.7127,-2.7192,-2.7229,-2.727,-2.7327,-2.7343,-2.7408,-2.7469,-2.7523,-2.7605,-2.7631,-2.7692,-2.7705,-2.767,-2.7676,-2.7693,-2.769,-2.7743,-2.7752,-2.7736,-2.7736,-2.7736,0,-2.6895,-2.6931,-2.701,-2.7042,-2.7078,-2.713,-2.7167,-2.7219,-2.7257,-2.733,-2.7359,-2.7422,-2.7475,-2.7572,-2.7627,-2.769,-2.7703,-2.7717,-2.7713,-2.7698,-2.7703,-2.77,-2.7704,-2.7717,-2.7717,-2.7717,-2.7717,0,-2.6918,-2.6941,-2.6993,-2.7053,-2.7096,-2.7147,-2.7199,-2.7224,-2.7286,-2.7327,-2.7388,-2.743,-2.7512,-2.7575,-2.7643,-2.7684,-2.7711,-2.7718,-2.7726,-2.7712,-2.769,-2.7701,-2.7669,-2.7716,-2.7716,-2.7716,-2.7716,-2.7716,-2.6926,-2.696,-2.702,-2.7076,-2.712,-2.7168,-2.7206,-2.7251,-2.7303,-2.7373,-2.7401,-2.7464,-2.7526,-2.7621,-2.7661,-2.7712,-2.7717,-2.7729,-2.7731,-2.7733,-2.7731,-2.7682,-2.7725,-2.7725,-2.7725,-2.7725,-2.7725,0,-2.695,-2.6991,-2.7042,-2.7112,-2.7157,-2.7177,-2.7236,-2.7272,-2.7327,-2.7381,-2.7433,-2.7504,-2.7565,-2.7625,-2.769,-2.7719,-2.7733,-2.7734,-2.7732,-2.7741,-2.7723,-2.7709,-2.7722,-2.7722,-2.7722,-2.7722,-2.7722,-2.7722,-2.6968,-2.7025,-2.7055,-2.7135,-2.7176,-2.7237,-2.7269,-2.7313,-2.7357,-2.7434,-2.7484,-2.7522,-2.758,-2.7649,-2.7706,-2.7722,-2.7744,-2.7742,-2.7761,-2.7743,-2.7742,-2.7742,-2.7729,-2.7746,-2.7746,-2.7775,-2.7776,-2.7776]},{"header":{"parameterUnit":"m.s-1","parameterCategory":1,"la1":30.2991,"la2":30.254,"lo1":-89.0895,"lo2":-89.0444,"dy":0.0017,"dx":0.0017,"nx":28,"ny":28,"refTime":"2026-02-17T03:00:00:Z","depth":0,"parameterNumber":3,"parameterNumberName":"V-component_of_WINDS"},"data":[0,0,0,0,0,0,0,0,0,0,0,0,0,0,0,0,0,0,0,0,0,0,0,0,0,0,0,0,0,0,0,0,0,0,0,0,0,0,0,0,0,0,0,0,0,0,0,0,0,0,0,0,0,0,0,0,0,0,3.7488,3.7489,0,3.7595,3.7597,3.7598,3.7631,3.7631,3.763,3.763,3.7744,3.7748,3.7751,0,0,0,0,0,0,0,0,0,0,0,0,0,3.7315,3.7318,3.7488,3.7489,3.749,3.7595,3.7597,3.7598,3.7631,3.7631,3.763,3.763,3.7743,3.7747,3.7752,0,0,0,0,0,0,0,0,0,0,0,0,0,3.7403,3.7319,3.7487,3.7519,3.7523,3.7595,3.7597,3.7599,3.7632,3.7631,3.763,3.7629,3.7742,3.7747,3.7752,3.7801,0,0,3.7768,3.7771,0,0,0,0,0,0,0,0,3.7398,3.741,3.7513,3.7517,3.7522,3.7599,3.7578,3.7667,3.7632,3.7591,3.763,3.7629,3.7697,3.7706,3.7728,3.7806,3.7811,3.7769,3.7772,3.7774,3.7776,0,0,0,0,0,0,0,3.7392,3.7405,3.753,3.7515,3.752,3.753,3.7542,3.7595,3.7647,3.7594,3.7597,3.7609,3.7699,3.7723,3.7731,3.7813,3.7769,3.7773,3.7777,3.7779,3.7939,3.794,0,0,0,0,0,0,3.738,3.74,3.7527,3.7534,3.7457,3.7534,3.7547,3.7575,3.7646,3.7657,3.7609,3.761,3.7714,3.7725,3.7735,3.7799,3.7774,3.7779,3.7782,3.7938,3.794,3.7941,0,0,0,0,0,0,3.7376,3.7391,3.7523,3.7468,3.7485,3.7537,3.7569,3.7578,3.7601,3.7658,3.7668,3.7624,3.7714,3.7728,3.7785,3.7803,3.7782,3.7787,3.7937,3.7939,3.794,3.7925,0,0,0,0,0,0,3.7371,3.7389,3.7407,3.7468,3.7488,3.7569,3.757,3.758,3.761,3.7612,3.7674,3.7684,3.7714,3.7776,3.779,3.781,3.7791,3.7936,3.7938,3.794,3.7924,3.7926,3.7927,0,0,0,0,0,3.7365,3.7399,3.7408,3.7423,3.7511,3.757,3.7581,3.7615,3.7611,3.7631,3.7667,3.7682,3.7798,3.7782,3.7797,3.7819,3.7935,3.7937,3.794,3.7923,3.7925,3.7927,0,0,0,0,0,0,3.7341,3.7408,3.7418,3.7473,3.7515,3.7575,3.76,3.7615,3.7661,3.7661,3.7702,3.7715,3.777,3.78,3.7781,3.7872,3.7867,3.7873,3.785,3.7852,3.7854,3.7846,3.7795,0,0,0,0,0,3.7341,3.7382,3.7439,3.7482,3.7502,3.7547,3.7574,3.7596,3.7642,3.7661,3.7702,3.7747,3.7795,3.7825,3.7871,3.7928,3.7944,3.7951,3.7953,3.7954,3.7959,3.7994,3.7998,3.7949,3.7949,3.7949,0,0,3.7344,3.7386,3.7409,3.7478,3.7513,3.7556,3.7562,3.7607,3.764,3.7668,3.7725,3.7756,3.781,3.7868,3.7895,3.7895,3.7976,3.7957,3.7957,3.7962,3.7997,3.8001,3.8005,3.795,3.795,3.795,0,0,3.7371,3.7405,3.7446,3.7481,3.7534,3.7564,3.7574,3.7632,3.7654,3.7711,3.7733,3.7774,3.7853,3.7892,3.7921,3.7964,3.798,3.7978,3.7987,3.802,3.8024,3.8028,3.8045,3.805,3.7982,3.7982,3.7982,0,3.7368,3.7432,3.7465,3.7509,3.7539,3.7565,3.7608,3.7641,3.7707,3.7729,3.7727,3.7828,3.7866,3.7934,3.7945,3.7967,3.7981,3.7971,3.802,3.8025,3.8029,3.8046,3.8052,3.7982,3.7982,3.7982,3.7982,0,3.7426,3.7471,3.7497,3.7559,3.7593,3.7635,3.7677,3.7707,3.7726,3.7757,3.7816,3.7862,3.792,3.7937,3.7957,3.8009,3.8007,3.8012,3.8009,3.8032,3.8049,3.8056,3.7981,3.7981,3.7981,3.7981,0,0,3.7442,3.7521,3.7531,3.756,3.7621,3.7657,3.7702,3.7757,3.7783,3.7828,3.7868,3.7935,3.7941,3.7975,3.7999,3.8028,3.8061,3.803,3.8032,3.8036,3.8124,3.8121,3.8128,3.8072,3.8073,3.8074,3.8121,0,3.7478,3.7557,3.7589,3.7655,3.7697,3.7723,3.7763,3.7805,3.7835,3.7878,3.7912,3.7959,3.7962,3.7983,3.8013,3.8051,3.808,3.8048,3.8112,3.8114,3.8099,3.8136,3.8133,3.8175,3.8127,3.8128,3.8129,0,3.7531,3.7575,3.7645,3.7702,3.7721,3.7756,3.7809,3.7848,3.7898,3.7918,3.7956,3.7979,3.8029,3.8022,3.8093,3.8071,3.8099,3.8122,3.8124,3.8133,3.8124,3.8148,3.8188,3.8195,3.8139,3.8138,3.8138,0,3.7537,3.7615,3.7667,3.7691,3.7758,3.7782,3.7812,3.7861,3.7892,3.7939,3.7961,3.8014,3.8043,3.8085,3.8122,3.8113,3.8191,3.8186,3.8211,3.8211,3.8228,3.8227,3.8275,3.8243,3.8243,3.8243,3.8242,0,3.7576,3.7618,3.7671,3.7703,3.7752,3.7788,3.7836,3.7867,3.7911,3.7951,3.7977,3.8015,3.8061,3.8105,3.8135,3.8191,3.8203,3.8223,3.8231,3.8222,3.822,3.8242,3.8241,3.8244,3.8244,3.8244,3.8243,0,3.7592,3.7629,3.7688,3.7746,3.7762,3.7796,3.7847,3.7881,3.7912,3.7963,3.7977,3.8027,3.8081,3.8121,3.8191,3.8211,3.8272,3.8279,3.8254,3.8259,3.8282,3.828,3.8349,3.8361,3.8318,3.8318,3.8319,0,3.7615,3.7648,3.771,3.7738,3.7767,3.7812,3.7844,3.7881,3.7914,3.7974,3.8001,3.8056,3.8102,3.8187,3.8231,3.8285,3.8295,3.8316,3.8304,3.8294,3.8298,3.8297,3.8301,3.8318,3.8318,3.8318,3.8318,0,3.7652,3.7669,3.7713,3.7764,3.7801,3.7844,3.7887,3.7909,3.7954,3.799,3.8045,3.808,3.8152,3.8207,3.8266,3.8299,3.8317,3.8321,3.8331,3.8323,3.8308,3.8318,3.8261,3.832,3.832,3.832,3.832,3.832,3.7674,3.7705,3.7754,3.7803,3.7839,3.7879,3.7913,3.7948,3.7994,3.8054,3.8074,3.813,3.8182,3.8262,3.8296,3.8342,3.8343,3.8355,3.8359,3.8362,3.8362,3.8299,3.8353,3.8353,3.8353,3.8353,3.8353,0,3.7715,3.7747,3.7791,3.785,3.789,3.7901,3.795,3.7982,3.8031,3.8076,3.8121,3.8185,3.8239,3.8287,3.8344,3.8372,3.8382,3.8386,3.8386,3.8393,3.8358,3.8345,3.8377,3.8377,3.8377,3.8377,3.8377,3.8377,3.774,3.7794,3.7817,3.7889,3.7922,3.7977,3.8004,3.8042,3.8078,3.8147,3.8192,3.8222,3.8269,3.833,3.8381,3.8394,3.8415,3.8417,3.8432,3.8399,3.8396,3.8393,3.8381,3.8421,3.8421,3.8465,3.8465,3.8465]}]]